Location: Norton
(51.3000°N, 0.8167°E)
Time: 00:54:46
(UTC+00:00)

Cosmos 2333 Rocket - Pass Details

Date: 03 March 2021
Orbit: 837 x 864 km, 70.8° (Epoch: 13 April)

Event Time Altitude Azimuth Distance (km) Brightness Sun altitude
Rises 20:31:06 0° 214° (SW) 3,393 5.4 -26.8°
Reaches altitude 10° 20:33:32 10° 216° (SW) 2,466 4.7 -27.1°
Maximum altitude 20:39:12 76° 302° (WNW) 883 2.3 -27.9°
Drops below altitude 10° 20:44:58 10° 28° (NNE) 2,500 4.6 -28.7°
Sets 20:47:27 0° 31° (NNE) 3,443 5.4 -29.0°
